FW5866 Weather Reports


Display with metric or nautical units.
time (UTC)temp
F
wind
direction
speed
MPH
gust
MPH
rain 1hr
in
rain 24hr
in
rain mn
in
humidity
%
barometer
mb
20260904103105 74 0 0.0 0.0 0.00 0.20 0.00 93 1015.1
20260904101600 74 0 0.0 0.0 0.00 0.20 0.00 93 1015.1
20260904100057 74 0 0.0 0.0 0.00 0.20 0.00 93 1015.2
20260904094557 75 0 0.0 0.0 0.00 0.20 0.00 94 1015.0
20260904093053 75 0 0.0 0.0 0.00 0.20 0.00 93 1015.0
20260904091611 75 0 0.0 0.0 0.00 0.20 0.00 94 1015.0
20260904090057 75 0 0.0 0.0 0.00 0.20 0.00 93 1014.9
20260904084555 75 0 0.0 0.0 0.00 0.20 0.00 93 1015.0
20260904083111 74 0 0.0 0.0 0.00 0.20 0.00 93 1014.8
20260904081559 75 0 0.0 0.0 0.00 0.20 0.00 93 1014.8
20260904080105 75 0 0.0 0.0 0.00 0.20 0.00 93 1014.7
20260904074611 75 0 0.0 0.0 0.00 0.20 0.00 93 1015.0
20260904073102 75 0 0.0 0.0 0.00 0.20 0.00 93 1015.0
20260904071559 75 0 0.0 0.0 0.00 0.20 0.00 93 1015.2
20260904070126 75 0 0.0 0.0 0.00 0.20 0.00 93 1015.3
20260904064553 75 0 0.0 0.0 0.00 0.20 0.00 93 1015.3
20260904063051 75 0 0.0 0.0 0.00 0.20 0.00 93 1015.4
20260904061547 75 0 0.0 0.0 0.00 0.20 0.00 93 1015.3
20260904060100 76 0 0.0 0.0 0.00 0.20 0.00 92 1015.2
20260904054554 76 0 0.0 0.0 0.00 0.20 0.00 92 1015.1
20260904053101 76 0 0.0 0.0 0.00 0.20 0.00 93 1015.1
20260904051607 76 0 0.0 0.0 0.00 0.20 0.00 93 1014.9
20260904050057 76 0 0.0 0.0 0.00 0.20 0.00 92 1015.0
20260904044605 76 0 0.0 0.0 0.00 0.20 0.20 92 1015.0
20260904043054 76 0 0.0 0.0 0.00 0.20 0.20 93 1015.1
20260904041607 76 0 0.0 0.0 0.00 0.20 0.20 92 1015.1
20260904040110 76 0 0.0 0.0 0.00 0.20 0.20 92 1015.0
20260904034613 77 0 0.0 0.0 0.00 0.20 0.20 92 1015.1
20260904033104 77 0 0.0 0.0 0.00 0.20 0.20 92 1014.9
20260904031558 77 0 0.0 0.0 0.00 0.20 0.20 91 1014.8
20260904030056 77 0 0.0 0.0 0.00 0.20 0.20 91 1014.9
20260904024549 77 0 0.0 0.0 0.00 0.20 0.20 91 1015.0
20260904023100 78 0 0.0 0.0 0.00 0.20 0.20 91 1014.9
20260904021606 78 0 0.0 0.0 0.00 0.20 0.20 91 1015.2
20260904020057 78 0 0.0 0.0 0.00 0.20 0.20 91 1015.2
20260904014633 78 0 0.0 0.0 0.00 0.20 0.20 92 1015.2
20260904013050 79 0 0.0 0.0 0.00 0.20 0.20 91 1015.1
20260904011619 79 0 0.0 0.0 0.00 0.20 0.20 91 1015.0
20260904004556 79 0 0.0 0.0 0.00 0.20 0.20 91 1014.7
20260904003103 80 0 0.0 0.0 0.00 0.20 0.20 90 1014.6
20260904001559 80 0 0.0 0.0 0.00 0.20 0.20 91 1014.6
20260904000058 80 0 0.0 0.0 0.00 0.20 0.20 90 1014.4
20260903234554 80 0 0.0 0.0 0.00 0.20 0.20 90 1014.4
20260903233113 81 0 0.0 0.0 0.00 0.20 0.20 90 1014.5
20260903231557 81 0 0.0 0.0 0.00 0.20 0.20 91 1014.4
20260903230057 81 0 0.0 3.0 0.00 0.20 0.20 91 1014.1
20260903224552 80 294 0.0 3.0 0.00 0.20 0.20 91 1014.1
20260903223114 80 0 0.0 0.0 0.00 0.20 0.20 91 1014.3
20260903221556 80 0 0.0 0.0 0.00 0.20 0.20 91 1014.4
20260903220117 80 0 0.0 3.0 0.00 0.20 0.20 91 1014.4
20260903214553 80 319 1.0 3.0 0.00 0.20 0.20 91 1014.7
20260903213049 79 0 0.0 0.0 0.00 0.20 0.20 92 1014.8
20260903211557 78 0 0.0 1.0 0.05 0.20 0.20 92 1014.7
20260903210058 78 0 1.0 4.0 0.11 0.20 0.20 92 1015.2
20260903204552 78 0 2.0 6.0 0.11 0.20 0.20 92 1015.8
20260903203108 78 292 6.0 11.0 0.16 0.20 0.20 92 1015.9
20260903201556 79 257 1.0 7.0 0.15 0.15 0.15 89 1016.2
20260903200111 81 153 3.0 8.0 0.09 0.09 0.09 87 1016.2
20260903194559 82 281 2.0 6.0 0.09 0.09 0.09 87 1015.3
20260903193054 84 154 0.0 3.0 0.03 0.03 0.03 84 1015.5
20260903191549 85 163 1.0 5.0 0.00 0.00 0.00 82 1015.9
20260903190057 88 148 0.0 3.0 0.00 0.00 0.00 83 1015.9
20260903184555 88 154 0.0 4.0 0.00 0.00 0.00 84 1015.9
20260903183057 87 0 0.0 1.0 0.00 0.00 0.00 85 1016.1
20260903181549 87 62 0.0 3.0 0.00 0.00 0.00 84 1016.4
20260903180049 88 60 0.0 3.0 0.00 0.00 0.00 84 1016.4
20260903174555 89 0 1.0 4.0 0.00 0.00 0.00 83 1016.4
20260903173058 89 81 0.0 6.0 0.00 0.00 0.00 84 1016.5
20260903171553 88 0 1.0 5.0 0.00 0.00 0.00 85 1016.5
20260903164557 87 0 0.0 3.0 0.00 0.00 0.00 87 1016.6
20260903163055 87 0 0.0 0.0 0.00 0.00 0.00 87 1016.8
20260903161549 87 0 0.0 2.0 0.00 0.00 0.00 89 1016.8
20260903160057 85 0 0.0 2.0 0.00 0.00 0.00 90 1017.0
20260903154554 84 209 0.0 3.0 0.00 0.00 0.00 90 1017.0
20260903153054 83 156 0.0 2.0 0.00 0.00 0.00 91 1017.0
20260903151601 83 0 0.0 3.0 0.00 0.00 0.00 92 1017.1
20260903150111 83 121 0.0 3.0 0.00 0.00 0.00 93 1017.1
20260903144610 83 157 0.0 5.0 0.00 0.00 0.00 93 1017.1
20260903143054 82 0 0.0 2.0 0.00 0.00 0.00 94 1017.1
20260903141554 82 0 0.0 2.0 0.00 0.00 0.00 94 1017.1
20260903140104 82 0 0.0 0.0 0.00 0.00 0.00 94 1017.1
20260903134614 82 0 0.0 3.0 0.00 0.00 0.00 94 1017.1
20260903133106 81 96 0.0 2.0 0.00 0.00 0.00 94 1017.1
20260903131554 80 0 0.0 2.0 0.00 0.00 0.00 95 1017.2
20260903130105 80 0 0.0 2.0 0.00 0.00 0.00 94 1017.2
20260903124600 79 0 0.0 1.0 0.00 0.00 0.00 94 1017.2
20260903123057 78 0 0.0 4.0 0.00 0.00 0.00 94 1017.1
20260903121553 77 0 0.0 3.0 0.00 0.00 0.00 94 1017.0
20260903120109 76 0 0.0 0.0 0.00 0.00 0.00 93 1016.8
20260903114555 76 0 0.0 0.0 0.00 0.00 0.00 93 1016.8
20260903113053 76 0 0.0 0.0 0.00 0.00 0.00 93 1016.6
20260903111551 76 0 0.0 0.0 0.00 0.00 0.00 93 1016.6
20260903110104 76 0 0.0 0.0 0.00 0.00 0.00 93 1016.4
20260903104611 76 0 0.0 0.0 0.00 0.00 0.00 93 1016.3